• In Kazakhstan
  • List of Countries
  • For 7 days
  • Water Temperature
  • Satellite Maps
  • Weather Map
  • News
  • Weather Widgets
  • user-avatar
    Login

    Hourly Weather Omaha

    Today, 20 September, Wednesday

    Time Temperature Precipitation Wind Pressure Humidity
    00:00 +29°C° 0 mm 9 mps 723 mmHg 63%
    01:00 +28°C° 0 mm 8 mps 724 mmHg 62%
    02:00 +27°C° 0 mm 7 mps 724 mmHg 61%
    03:00 +27°C° 0 mm 6 mps 725 mmHg 60%
    04:00 +25°C° 0 mm 5 mps 725 mmHg 57%
    05:00 +21°C° 0 mm 4 mps 726 mmHg 55%
    06:00 +19°C° 0 mm 4 mps 726 mmHg 53%
    07:00 +21°C° 0 mm 4 mps 727 mmHg 51%
    08:00 +22°C° 0 mm 4 mps 728 mmHg 49%
    09:00 +23°C° 0 mm 5 mps 729 mmHg 47%
    10:00 +26°C° 0 mm 4 mps 729 mmHg 40%
    11:00 +27°C° 0 mm 4 mps 730 mmHg 34%
    12:00 +29°C° 0 mm 4 mps 730 mmHg 28%
    13:00 +30°C° 0 mm 3 mps 730 mmHg 26%
    14:00 +30°C° 0 mm 3 mps 730 mmHg 24%
    15:00 +31°C° 0 mm 2 mps 730 mmHg 22%
    16:00 +29°C° 0 mm 2 mps 730 mmHg 26%
    17:00 +27°C° 0 mm 1 mps 730 mmHg 30%
    18:00 +25°C° 0 mm 1 mps 730 mmHg 34%
    19:00 +24°C° 0 mm 1 mps 731 mmHg 36%
    20:00 +23°C° 0 mm 1 mps 731 mmHg 37%
    21:00 +22°C° 0 mm 1 mps 732 mmHg 39%
    22:00 +20°C° 0 mm 2 mps 732 mmHg 41%
    23:00 +19°C° 0 mm 2 mps 731 mmHg 44%

    Tomorrow, 21 September, Thursday

    Time Temperature Precipitation Wind Pressure Humidity
    00:00 +19°C° 0 mm 3 mps 731 mmHg 47%
    01:00 +19°C° 0 mm 3 mps 731 mmHg 51%
    02:00 +19°C° 0 mm 4 mps 731 mmHg 55%
    03:00 +19°C° 0 mm 4 mps 731 mmHg 60%
    04:00 +19°C° 0 mm 4 mps 731 mmHg 63%
    05:00 +19°C° 0 mm 5 mps 730 mmHg 67%
    06:00 +19°C° 0 mm 5 mps 730 mmHg 71%
    07:00 +21°C° 0.1 mm 5 mps 730 mmHg 74%
    08:00 +22°C° 0.1 mm 6 mps 730 mmHg 78%
    09:00 +23°C° 0.1 mm 6 mps 730 mmHg 82%
    10:00 +26°C° 0 mm 6 mps 730 mmHg 79%
    11:00 +27°C° 0 mm 7 mps 730 mmHg 77%
    12:00 +29°C° 0 mm 7 mps 729 mmHg 75%
    13:00 +32°C° 0 mm 7 mps 729 mmHg 66%
    14:00 +34°C° 0 mm 8 mps 728 mmHg 57%
    15:00 +38°C° 0 mm 9 mps 727 mmHg 48%
    16:00 +37°C° 0 mm 8 mps 727 mmHg 51%
    17:00 +35°C° 0 mm 7 mps 727 mmHg 54%
    18:00 +34°C° 0 mm 7 mps 727 mmHg 57%
    19:00 +33°C° 0.1 mm 7 mps 727 mmHg 61%
    20:00 +32°C° 0.1 mm 8 mps 728 mmHg 64%
    21:00 +31°C° 0.1 mm 8 mps 728 mmHg 68%
    22:00 +31°C° 0.1 mm 8 mps 728 mmHg 68%
    23:00 +29°C° 0.1 mm 8 mps 728 mmHg 68%

    Day after tomorrow, 22 September, Friday

    Time Temperature Precipitation Wind Pressure Humidity
    00:00 +29°C° 0.1 mm 8 mps 728 mmHg 68%
    01:00 +29°C° 0 mm 8 mps 728 mmHg 69%
    02:00 +28°C° 0 mm 7 mps 728 mmHg 69%
    03:00 +28°C° 0 mm 7 mps 728 mmHg 69%
    04:00 +28°C° 0 mm 7 mps 728 mmHg 68%
    05:00 +28°C° 0 mm 7 mps 728 mmHg 68%
    06:00 +28°C° 0 mm 7 mps 728 mmHg 68%
    07:00 +29°C° 0 mm 7 mps 729 mmHg 66%
    08:00 +29°C° 0 mm 7 mps 729 mmHg 64%
    09:00 +29°C° 0 mm 8 mps 729 mmHg 62%
    10:00 +31°C° 0 mm 8 mps 729 mmHg 59%
    11:00 +33°C° 0 mm 8 mps 729 mmHg 56%
    12:00 +34°C° 0 mm 8 mps 729 mmHg 53%
    13:00 +35°C° 0 mm 8 mps 729 mmHg 48%
    14:00 +37°C° 0 mm 8 mps 729 mmHg 43%
    15:00 +39°C° 0 mm 8 mps 729 mmHg 39%
    16:00 +38°C° 0 mm 7 mps 729 mmHg 42%
    17:00 +35°C° 0 mm 7 mps 729 mmHg 44%
    18:00 +34°C° 0 mm 7 mps 728 mmHg 47%
    19:00 +33°C° 0 mm 7 mps 729 mmHg 52%
    20:00 +32°C° 0 mm 8 mps 729 mmHg 56%
    21:00 +31°C° 0 mm 8 mps 729 mmHg 61%
    22:00 +29°C° 0 mm 8 mps 729 mmHg 62%
    23:00 +29°C° 0 mm 7 mps 729 mmHg 64%

    23 September, Saturday

    Time Temperature Precipitation Wind Pressure Humidity
    00:00 +28°C° 0 mm 6 mps 729 mmHg 65%
    01:00 +28°C° 0 mm 6 mps 729 mmHg 64%
    02:00 +28°C° 0 mm 6 mps 729 mmHg 62%
    03:00 +28°C° 0 mm 6 mps 729 mmHg 61%
    04:00 +28°C° 0 mm 6 mps 729 mmHg 61%
    05:00 +27°C° 0 mm 6 mps 730 mmHg 61%
    06:00 +27°C° 0 mm 5 mps 730 mmHg 61%
    07:00 +28°C° 0 mm 6 mps 730 mmHg 59%
    08:00 +29°C° 0 mm 7 mps 731 mmHg 57%
    09:00 +30°C° 0 mm 7 mps 731 mmHg 54%
    10:00 +32°C° 0 mm 7 mps 731 mmHg 51%
    11:00 +34°C° 0 mm 7 mps 731 mmHg 47%
    12:00 +35°C° 0 mm 7 mps 731 mmHg 43%
    13:00 +36°C° 0 mm 7 mps 731 mmHg 42%
    14:00 +36°C° 0 mm 7 mps 730 mmHg 40%
    15:00 +36°C° 0 mm 7 mps 730 mmHg 39%
    16:00 +35°C° 0 mm 6 mps 730 mmHg 42%
    17:00 +34°C° 0 mm 5 mps 730 mmHg 46%
    18:00 +32°C° 0 mm 5 mps 730 mmHg 50%
    19:00 +30°C° 0 mm 5 mps 731 mmHg 53%
    20:00 +30°C° 0 mm 6 mps 731 mmHg 57%
    21:00 +29°C° 0 mm 6 mps 731 mmHg 60%
    22:00 +27°C° 0 mm 6 mps 731 mmHg 65%
    23:00 +26°C° 0 mm 5 mps 731 mmHg 69%

    24 September, Sunday

    Time Temperature Precipitation Wind Pressure Humidity
    00:00 +25°C° 0 mm 4 mps 731 mmHg 74%
    01:00 +24°C° 0 mm 3 mps 731 mmHg 77%
    02:00 +24°C° 0 mm 2 mps 731 mmHg 80%
    03:00 +23°C° 0 mm 1 mps 731 mmHg 84%
    04:00 +23°C° 0 mm 2 mps 731 mmHg 83%
    05:00 +23°C° 0 mm 2 mps 732 mmHg 83%
    06:00 +23°C° 0 mm 2 mps 732 mmHg 82%
    07:00 +25°C° 0.1 mm 3 mps 732 mmHg 76%
    08:00 +26°C° 0.1 mm 3 mps 732 mmHg 70%
    09:00 +28°C° 0.1 mm 4 mps 733 mmHg 64%
    10:00 +29°C° 0.4 mm 4 mps 732 mmHg 60%
    11:00 +30°C° 0.4 mm 4 mps 732 mmHg 55%
    12:00 +32°C° 0.4 mm 4 mps 732 mmHg 51%
    13:00 +31°C° 0 mm 3 mps 732 mmHg 50%
    14:00 +31°C° 0 mm 2 mps 732 mmHg 50%
    15:00 +31°C° 0 mm 1 mps 731 mmHg 49%
    16:00 +30°C° 0.1 mm 2 mps 731 mmHg 53%
    17:00 +29°C° 0.1 mm 2 mps 731 mmHg 56%
    18:00 +29°C° 0.1 mm 3 mps 731 mmHg 60%
    19:00 +27°C° 0.6 mm 3 mps 731 mmHg 67%
    20:00 +26°C° 0.6 mm 3 mps 732 mmHg 75%
    21:00 +24°C° 0.6 mm 3 mps 732 mmHg 82%
    22:00 +24°C° 0.8 mm 3 mps 732 mmHg 84%
    23:00 +24°C° 0.8 mm 3 mps 731 mmHg 85%

    25 September, Monday

    Time Temperature Precipitation Wind Pressure Humidity
    00:00 +24°C° 0.8 mm 3 mps 731 mmHg 87%
    01:00 +22°C° 1.1 mm 3 mps 731 mmHg 87%
    02:00 +22°C° 1.1 mm 3 mps 731 mmHg 88%
    03:00 +22°C° 1.1 mm 3 mps 731 mmHg 89%
    04:00 +22°C° 0.5 mm 3 mps 731 mmHg 89%
    05:00 +22°C° 0.5 mm 3 mps 731 mmHg 89%
    06:00 +21°C° 0.5 mm 3 mps 731 mmHg 90%
    07:00 +22°C° 0.4 mm 4 mps 732 mmHg 85%
    08:00 +25°C° 0.4 mm 4 mps 732 mmHg 81%
    09:00 +26°C° 0.4 mm 5 mps 732 mmHg 76%
    10:00 +27°C° 1 mm 4 mps 732 mmHg 71%
    11:00 +28°C° 1 mm 4 mps 732 mmHg 66%
    12:00 +29°C° 1 mm 4 mps 732 mmHg 61%
    13:00 +28°C° 0.6 mm 4 mps 732 mmHg 62%
    14:00 +28°C° 0.6 mm 3 mps 732 mmHg 64%
    15:00 +28°C° 0.6 mm 3 mps 732 mmHg 66%
    16:00 +26°C° 0.7 mm 2 mps 732 mmHg 72%
    17:00 +25°C° 0.7 mm 2 mps 733 mmHg 78%
    18:00 +24°C° 0.7 mm 1 mps 733 mmHg 83%
    19:00 +23°C° 0.3 mm 1 mps 733 mmHg 85%
    20:00 +23°C° 0.3 mm 1 mps 733 mmHg 87%
    21:00 +22°C° 0.3 mm 1 mps 734 mmHg 88%
    22:00 +20°C° 0.3 mm 2 mps 734 mmHg 89%
    23:00 +19°C° 0.3 mm 3 mps 734 mmHg 90%
    Show more